Change the Weather History Date:

Monday, October 29, 2012

  Actual Average Record
Temperature  
Mean Temperature 22 °F -  
Max Temperature 32 °F 35 °F 52 °F (1954)
Min Temperature 14 °F 20 °F 3 °F (1985)
Degree Days  
Heating Degree Days 43    
Moisture  
Dew Point 15 °F    
Average Humidity 74    
Maximum Humidity 88    
Minimum Humidity 57    
Precipitation  
Precipitation 0.00 in - - ()
Sea Level Pressure  
Sea Level Pressure 29.89 in    
Wind  
Wind Speed 2 mph (North)    
Max Wind Speed 7 mph    
Max Gust Speed -    
Visibility 10 miles    
Events Snow    
Averages and records for this station are not official NWS values.
T = Trace of Precipitation, MM = Missing Value Source: NWS Daily Summary

Daily Weather History Graph

Daily Weather History Graph

Search for Another Location

Airport or City:

Trip Planner

Search our weather history database for the weather conditions in past years. The results will help you decide how hot, cold, wet, or windy it might be!

Date:

Astronomy

Oct. 29, 2012 Rise Set
Actual Time 9:19 AM AKDT 5:59 PM AKDT
Civil Twilight 8:32 AM AKDT 6:46 PM AKDT
Nautical Twilight 7:40 AM AKDT 7:38 PM AKDT
Astronomical Twilight 6:49 AM AKDT 8:28 PM AKDT
Moon 5:40 PM AKDT (10/29) 9:32 AM AKDT (10/29)
Length of Visible Light 10h 14m
Length of Day
8h 39m
Full, 100% of the Moon is Illuminated
Oct 29
Full
Nov 6
Last Quarter
Nov 13
New
Nov 20
First Quarter
Nov 28
Full

Hourly Weather History & Observations

Time (AKDT) Temp. Windchill Dew Point Humidity Pressure Visibility Wind Dir Wind Speed Gust Speed Precip Events Conditions
12:53 AM 14.0 °F 8.2 °F 10.0 °F 84% 30.01 in 10.0 mi NNW 3.5 mph - N/A   Clear
1:53 AM 14.0 °F 6.5 °F 10.0 °F 84% 30.00 in 10.0 mi North 4.6 mph - N/A   Clear
2:53 AM 16.0 °F 10.4 °F 12.0 °F 84% 29.99 in 10.0 mi North 3.5 mph - N/A   Clear
3:53 AM 15.1 °F - 10.9 °F 84% 29.98 in 10.0 mi Calm Calm - N/A   Clear
4:53 AM 16.0 °F - 12.9 °F 88% 29.97 in 10.0 mi Calm Calm - N/A   Clear
5:53 AM 14.0 °F 8.2 °F 10.0 °F 84% 29.96 in 10.0 mi North 3.5 mph - N/A   Clear
6:53 AM 15.1 °F 9.4 °F 12.0 °F 88% 29.95 in 10.0 mi North 3.5 mph - N/A   Clear
7:53 AM 17.1 °F 11.7 °F 12.0 °F 81% 29.94 in 10.0 mi North 3.5 mph - N/A   Clear
8:53 AM 16.0 °F 10.4 °F 12.0 °F 84% 29.93 in 10.0 mi NNE 3.5 mph - N/A   Partly Cloudy
9:53 AM 16.0 °F 10.4 °F 12.0 °F 84% 29.92 in 10.0 mi North 3.5 mph - N/A   Partly Cloudy
10:53 AM 21.9 °F 13.4 °F 17.1 °F 82% 29.92 in 10.0 mi North 6.9 mph - N/A   Mostly Cloudy
11:53 AM 23.0 °F - 16.0 °F 74% 29.91 in 10.0 mi Calm Calm - N/A   Mostly Cloudy
12:53 PM 27.0 °F - 16.0 °F 63% 29.90 in 10.0 mi Calm Calm - N/A   Scattered Clouds
1:53 PM 28.9 °F - 18.0 °F 64% 29.89 in 10.0 mi Calm Calm - N/A   Scattered Clouds
2:53 PM 30.9 °F - 17.1 °F 57% 29.87 in 10.0 mi Calm Calm - N/A   Scattered Clouds
3:53 PM 30.9 °F - 17.1 °F 57% 29.86 in 10.0 mi Calm Calm - N/A   Mostly Cloudy
4:53 PM 30.9 °F - 17.1 °F 57% 29.85 in 10.0 mi Calm Calm - N/A   Mostly Cloudy
5:53 PM 28.0 °F - 16.0 °F 61% 29.83 in 10.0 mi Calm Calm - N/A   Mostly Cloudy
6:53 PM 28.9 °F 25.2 °F 18.0 °F 64% 29.83 in 10.0 mi NNW 3.5 mph - N/A   Overcast
7:53 PM 28.9 °F - 19.0 °F 67% 29.81 in 10.0 mi Calm Calm - N/A   Overcast
8:53 PM 28.9 °F - 19.0 °F 67% 29.81 in 10.0 mi Calm Calm - N/A   Overcast
9:35 PM 28.4 °F - 17.6 °F 64% 29.78 in 10.0 mi Calm Calm - N/A   Overcast
9:53 PM 28.9 °F - 18.0 °F 64% 29.80 in 10.0 mi Calm Calm - N/A   Overcast
10:23 PM 28.4 °F - 19.4 °F 69% 29.78 in 10.0 mi Calm Calm - N/A   Overcast
10:53 PM 27.0 °F - 21.9 °F 81% 29.79 in 6.0 mi Calm Calm - 0.00 in Snow Light Snow
11:53 PM 26.1 °F 21.9 °F 21.9 °F 84% 29.79 in 10.0 mi WSW 3.5 mph - 0.00 in   Overcast